Tracking 18795 objects as of 23-August-2017
HD Live streaming from Space Station
objects crossing your sky now

DTUSAT

Track DTUSAT now!
10-day predictions
DTUSAT is classified as:


NORAD ID: 27842
Int'l Code: 2003-031C
Perigee: 818.0 km
Apogee: 832.7 km
Inclination: 98.7 °
Period: 101.3 minutes
Semi major axis: 7196 km
RCS: 0.0583 m2 (small)
Launch date: June 30, 2003
Source: Denmark (DEN)
Launch site: PLESETSK MISSILE AND SPACE COMPLEX (PKMTR)
Uplink (MHz):
Downlink (MHz):
Beacon (MHz): 437.475
Mode: 2400bps AFSK CW
Call sign: OZ2DTU
Status: Inactive

Your satellite tracking list
Your tracking list is empty





NASA's NSSDC Master Catalog

Two Line Element Set (TLE):
1 27842U 03031C   17234.45381716 +.00000040 +00000-0 +37872-4 0  9997
2 27842 098.6834 241.2491 0010218 125.3532 234.8602 14.22116041733863
Source of the keplerian elements: AFSPC